Time,TemperatureF,DewpointF,PressureIn,WindDirection,WindDirectionDegrees,WindSpeedMPH,WindSpeedGustMPH,Humidity,HourlyPrecipIn,Conditions,Clouds,dailyrainin,SoftwareType,DateUTC
2013-05-10 00:00:00,54.5,53.4,29.93,WSW,255,4.0,10.0,96,0.00,,,0.02,Wunderground v.1.15,2013-05-10 04:00:00,
2013-05-10 00:05:00,54.6,53.5,29.93,WNW,295,5.0,10.0,96,0.00,,,0.02,Wunderground v.1.15,2013-05-10 04:05:00,
2013-05-10 00:10:00,54.5,53.4,29.93,WSW,238,4.0,4.0,96,0.00,,,0.02,Wunderground v.1.15,2013-05-10 04:10:00,
2013-05-10 00:15:00,54.2,53.1,29.93,WSW,247,4.0,6.0,96,0.00,,,0.02,Wunderground v.1.15,2013-05-10 04:15:00,
2013-05-10 00:25:00,54.0,52.9,29.93,West,270,4.0,10.0,96,0.00,,,0.02,Wunderground v.1.15,2013-05-10 04:25:00,
2013-05-10 00:30:00,54.1,53.0,29.93,West,276,4.0,4.0,96,0.00,,,0.02,Wunderground v.1.15,2013-05-10 04:30:00,
2013-05-10 00:35:00,54.1,53.0,29.93,WNW,294,5.0,5.0,96,0.00,,,0.02,Wunderground v.1.15,2013-05-10 04:35:00,
2013-05-10 00:40:00,54.1,53.0,29.93,West,281,4.0,10.0,96,0.00,,,0.02,Wunderground v.1.15,2013-05-10 04:40:00,
2013-05-10 00:45:00,54.3,53.2,29.93,WSW,250,5.0,10.0,96,0.00,,,0.02,Wunderground v.1.15,2013-05-10 04:45:00,
2013-05-10 00:50:00,54.4,53.3,29.93,WSW,255,5.0,10.0,96,0.00,,,0.02,Wunderground v.1.15,2013-05-10 04:50:00,
2013-05-10 01:00:00,54.4,53.3,29.94,WSW,257,5.0,13.0,96,0.00,,,0.02,Wunderground v.1.15,2013-05-10 05:00:00,
2013-05-10 01:10:00,54.4,53.3,29.93,WSW,254,5.0,13.0,96,0.00,,,0.02,Wunderground v.1.15,2013-05-10 05:10:00,
2013-05-10 01:15:00,54.2,53.1,29.93,WSW,245,5.0,13.0,96,0.00,,,0.02,Wunderground v.1.15,2013-05-10 05:15:00,
2013-05-10 01:20:00,54.2,53.1,29.93,West,278,5.0,5.0,96,0.00,,,0.02,Wunderground v.1.15,2013-05-10 05:20:00,
2013-05-10 01:25:00,54.2,53.1,29.93,NW,312,5.0,6.0,96,0.00,,,0.02,Wunderground v.1.15,2013-05-10 05:25:00,
2013-05-10 01:35:00,54.4,53.3,29.93,West,264,5.0,13.0,96,0.00,,,0.02,Wunderground v.1.15,2013-05-10 05:35:00,
2013-05-10 01:40:00,54.3,53.2,29.93,West,276,5.0,13.0,96,0.00,,,0.02,Wunderground v.1.15,2013-05-10 05:40:00,
2013-05-10 01:45:00,54.2,53.1,29.93,WNW,293,5.0,13.0,96,0.00,,,0.02,Wunderground v.1.15,2013-05-10 05:45:00,
2013-05-10 01:50:00,54.2,53.1,29.93,WNW,298,6.0,13.0,96,0.00,,,0.02,Wunderground v.1.15,2013-05-10 05:50:00,
2013-05-10 01:55:00,54.2,53.1,29.93,WNW,290,6.0,13.0,96,0.00,,,0.02,Wunderground v.1.15,2013-05-10 05:55:00,
2013-05-10 02:00:00,54.4,53.3,29.93,WSW,251,6.0,6.0,96,0.00,,,0.02,Wunderground v.1.15,2013-05-10 06:00:00,
2013-05-10 02:10:00,54.5,53.4,29.93,West,264,5.0,5.0,96,0.00,,,0.02,Wunderground v.1.15,2013-05-10 06:10:00,
2013-05-10 02:15:00,54.4,53.3,29.93,SW,232,5.0,13.0,96,0.00,,,0.02,Wunderground v.1.15,2013-05-10 06:15:00,
2013-05-10 02:20:00,54.4,53.3,29.93,WSW,257,5.0,5.0,96,0.00,,,0.02,Wunderground v.1.15,2013-05-10 06:20:00,
2013-05-10 02:25:00,54.4,53.3,29.94,WSW,248,5.0,7.0,96,0.00,,,0.02,Wunderground v.1.15,2013-05-10 06:25:00,
2013-05-10 02:30:00,54.4,53.3,29.93,West,265,5.0,5.0,96,0.00,,,0.02,Wunderground v.1.15,2013-05-10 06:30:00,
2013-05-10 02:35:00,54.5,53.4,29.93,NW,304,4.0,13.0,96,0.00,,,0.02,Wunderground v.1.15,2013-05-10 06:35:00,
2013-05-10 02:40:00,54.7,53.6,29.93,WNW,291,3.0,13.0,96,0.00,,,0.02,Wunderground v.1.15,2013-05-10 06:40:00,
2013-05-10 02:50:00,54.8,53.7,29.93,NW,307,4.0,4.0,96,0.00,,,0.02,Wunderground v.1.15,2013-05-10 06:50:00,
2013-05-10 02:55:00,54.9,53.8,29.93,West,273,4.0,5.0,96,0.00,,,0.02,Wunderground v.1.15,2013-05-10 06:55:00,
2013-05-10 03:00:00,55.0,53.9,29.93,West,270,3.0,11.0,96,0.00,,,0.02,Wunderground v.1.15,2013-05-10 07:00:00,
2013-05-10 03:10:00,55.2,54.1,29.93,WNW,285,4.0,4.0,96,0.00,,,0.02,Wunderground v.1.15,2013-05-10 07:10:00,
2013-05-10 03:15:00,55.2,54.1,29.93,WNW,284,4.0,11.0,96,0.00,,,0.02,Wunderground v.1.15,2013-05-10 07:15:00,
2013-05-10 03:25:00,55.3,54.2,29.93,West,279,4.0,11.0,96,0.00,,,0.00,Wunderground v.1.15,2013-05-10 07:25:00,
2013-05-10 03:30:00,55.4,54.3,29.93,West,269,4.0,11.0,96,0.00,,,0.00,Wunderground v.1.15,2013-05-10 07:30:00,
2013-05-10 03:35:00,55.4,54.3,29.93,WNW,284,4.0,11.0,96,0.00,,,0.00,Wunderground v.1.15,2013-05-10 07:35:00,
2013-05-10 03:40:00,55.2,54.1,29.93,West,270,4.0,11.0,96,0.00,,,0.00,Wunderground v.1.15,2013-05-10 07:40:00,
2013-05-10 03:45:00,55.0,53.9,29.93,West,281,4.0,11.0,96,0.00,,,0.00,Wunderground v.1.15,2013-05-10 07:45:00,
2013-05-10 03:50:00,54.9,53.8,29.93,WNW,295,4.0,4.0,96,0.00,,,0.00,Wunderground v.1.15,2013-05-10 07:50:00,
2013-05-10 04:00:00,55.0,53.9,29.94,West,269,4.0,10.0,96,0.00,,,0.00,Wunderground v.1.15,2013-05-10 08:00:00,
2013-05-10 04:10:00,54.8,53.7,29.94,WNW,288,4.0,4.0,96,0.00,,,0.00,Wunderground v.1.15,2013-05-10 08:10:00,
2013-05-10 04:15:00,54.7,53.6,29.94,WNW,284,5.0,5.0,96,0.00,,,0.00,Wunderground v.1.15,2013-05-10 08:15:00,
2013-05-10 04:20:00,54.8,53.7,29.94,West,273,4.0,4.0,96,0.00,,,0.00,Wunderground v.1.15,2013-05-10 08:20:00,
2013-05-10 04:25:00,54.9,53.8,29.95,West,262,3.0,10.0,96,0.00,,,0.00,Wunderground v.1.15,2013-05-10 08:25:00,
2013-05-10 04:35:00,54.9,53.8,29.95,WSW,257,4.0,10.0,96,0.00,,,0.00,Wunderground v.1.15,2013-05-10 08:35:00,
2013-05-10 04:40:00,54.9,53.8,29.95,West,269,3.0,10.0,96,0.00,,,0.00,Wunderground v.1.15,2013-05-10 08:40:00,
2013-05-10 04:45:00,54.9,53.8,29.95,West,280,3.0,10.0,96,0.00,,,0.00,Wunderground v.1.15,2013-05-10 08:45:00,
2013-05-10 04:50:00,55.0,53.9,29.95,West,280,3.0,10.0,96,0.00,,,0.00,Wunderground v.1.15,2013-05-10 08:50:00,
2013-05-10 04:55:00,54.8,53.7,29.95,West,281,3.0,10.0,96,0.00,,,0.00,Wunderground v.1.15,2013-05-10 08:55:00,
2013-05-10 05:00:00,54.5,53.4,29.95,West,262,3.0,9.0,96,0.00,,,0.00,Wunderground v.1.15,2013-05-10 09:00:00,
2013-05-10 05:10:00,53.5,52.4,29.96,WNW,284,3.0,9.0,96,0.00,,,0.00,Wunderground v.1.15,2013-05-10 09:10:00,
2013-05-10 05:15:00,53.4,52.3,29.96,West,269,3.0,9.0,96,0.00,,,0.00,Wunderground v.1.15,2013-05-10 09:15:00,
2013-05-10 05:20:00,53.4,52.3,29.96,West,259,3.0,9.0,96,0.00,,,0.00,Wunderground v.1.15,2013-05-10 09:20:00,
2013-05-10 05:25:00,53.7,52.6,29.96,WNW,300,3.0,9.0,96,0.00,,,0.00,Wunderground v.1.15,2013-05-10 09:25:00,
2013-05-10 05:30:00,53.9,52.8,29.97,West,270,3.0,9.0,96,0.00,,,0.00,Wunderground v.1.15,2013-05-10 09:30:00,
2013-05-10 05:35:00,53.7,52.6,29.97,West,270,3.0,9.0,96,0.00,,,0.00,Wunderground v.1.15,2013-05-10 09:35:00,
2013-05-10 05:40:00,53.4,52.3,29.97,WNW,294,3.0,3.0,96,0.00,,,0.00,Wunderground v.1.15,2013-05-10 09:40:00,
2013-05-10 05:50:00,53.5,52.4,29.97,NW,304,3.0,3.0,96,0.00,,,0.00,Wunderground v.1.15,2013-05-10 09:50:00,
2013-05-10 05:55:00,53.6,52.5,29.97,WSW,258,2.0,9.0,96,0.00,,,0.00,Wunderground v.1.15,2013-05-10 09:55:00,
2013-05-10 06:00:00,53.7,52.6,29.97,WNW,302,2.0,2.0,96,0.00,,,0.00,Wunderground v.1.15,2013-05-10 10:00:00,
2013-05-10 06:10:00,53.9,52.8,29.97,WNW,296,2.0,8.0,96,0.00,,,0.00,Wunderground v.1.15,2013-05-10 10:10:00,
2013-05-10 06:15:00,53.9,52.8,29.98,West,273,2.0,8.0,96,0.00,,,0.00,Wunderground v.1.15,2013-05-10 10:15:00,
2013-05-10 06:25:00,54.0,52.9,29.98,West,270,3.0,8.0,96,0.00,,,0.00,Wunderground v.1.15,2013-05-10 10:25:00,
2013-05-10 06:30:00,54.0,52.9,29.98,West,259,2.0,8.0,96,0.00,,,0.00,Wunderground v.1.15,2013-05-10 10:30:00,
2013-05-10 06:35:00,54.0,52.9,29.98,WSW,256,2.0,8.0,96,0.00,,,0.00,Wunderground v.1.15,2013-05-10 10:35:00,
2013-05-10 06:40:00,54.1,53.0,29.97,WSW,257,1.0,8.0,96,0.00,,,0.00,Wunderground v.1.15,2013-05-10 10:40:00,
2013-05-10 06:45:00,54.3,53.5,29.97,WSW,257,1.0,8.0,97,0.00,,,0.00,Wunderground v.1.15,2013-05-10 10:45:00,
2013-05-10 06:50:00,54.4,53.6,29.98,West,259,0.0,8.0,97,0.00,,,0.00,Wunderground v.1.15,2013-05-10 10:50:00,
2013-05-10 06:55:00,54.4,53.6,29.98,West,260,1.0,8.0,97,0.00,,,0.00,Wunderground v.1.15,2013-05-10 10:55:00,
2013-05-10 07:05:00,54.5,53.4,29.98,West,264,1.0,5.0,96,0.00,,,0.00,Wunderground v.1.15,2013-05-10 11:05:00,
2013-05-10 07:10:00,54.6,53.5,29.98,East,95,1.0,5.0,96,0.00,,,0.00,Wunderground v.1.15,2013-05-10 11:10:00,
2013-05-10 07:15:00,54.6,53.5,29.98,West,262,1.0,5.0,96,0.00,,,0.00,Wunderground v.1.15,2013-05-10 11:15:00,
2013-05-10 07:20:00,54.8,53.7,29.98,West,262,1.0,5.0,96,0.00,,,0.00,Wunderground v.1.15,2013-05-10 11:20:00,
2013-05-10 07:25:00,55.1,54.3,29.98,West,262,0.0,5.0,97,0.00,,,0.00,Wunderground v.1.15,2013-05-10 11:25:00,
2013-05-10 07:30:00,55.5,54.4,29.98,West,274,1.0,1.0,96,0.00,,,0.00,Wunderground v.1.15,2013-05-10 11:30:00,
2013-05-10 07:40:00,56.2,55.4,29.98,West,264,1.0,5.0,97,0.00,,,0.00,Wunderground v.1.15,2013-05-10 11:40:00,
2013-05-10 07:45:00,56.9,56.1,29.98,WSW,250,1.0,5.0,97,0.00,,,0.00,Wunderground v.1.15,2013-05-10 11:45:00,
2013-05-10 07:50:00,57.1,56.3,29.99,West,269,1.0,5.0,97,0.00,,,0.00,Wunderground v.1.15,2013-05-10 11:50:00,
2013-05-10 07:55:00,57.2,56.4,29.99,West,261,3.0,5.0,97,0.00,,,0.00,Wunderground v.1.15,2013-05-10 11:55:00,
2013-05-10 08:00:00,57.6,56.8,29.98,West,267,3.0,5.0,97,0.00,,,0.00,Wunderground v.1.15,2013-05-10 12:00:00,
2013-05-10 08:10:00,57.6,56.8,29.99,WNW,300,4.0,5.0,97,0.00,,,0.00,Wunderground v.1.15,2013-05-10 12:10:00,
2013-05-10 08:15:00,57.6,56.8,29.99,WSW,252,4.0,5.0,97,0.00,,,0.00,Wunderground v.1.15,2013-05-10 12:15:00,
2013-05-10 08:20:00,57.1,56.0,29.99,WNW,300,5.0,5.0,96,0.00,,,0.00,Wunderground v.1.15,2013-05-10 12:20:00,
2013-05-10 08:25:00,56.8,55.7,29.99,West,268,5.0,5.0,96,0.00,,,0.00,Wunderground v.1.15,2013-05-10 12:25:00,
2013-05-10 08:30:00,57.1,56.0,29.99,NW,320,4.0,4.0,96,0.00,,,0.00,Wunderground v.1.15,2013-05-10 12:30:00,
2013-05-10 08:35:00,57.8,56.7,29.99,West,261,3.0,5.0,96,0.00,,,0.00,Wunderground v.1.15,2013-05-10 12:35:00,
2013-05-10 08:40:00,58.3,57.2,29.99,NW,316,3.0,5.0,96,0.00,,,0.00,Wunderground v.1.15,2013-05-10 12:40:00,
2013-05-10 08:50:00,59.0,57.3,29.99,NW,318,4.0,5.0,94,0.00,,,0.00,Wunderground v.1.15,2013-05-10 12:50:00,
2013-05-10 08:55:00,59.2,57.2,29.99,WNW,289,5.0,6.0,93,0.00,,,0.00,Wunderground v.1.15,2013-05-10 12:55:00,
2013-05-10 09:00:00,59.9,57.9,29.99,WSW,251,5.0,5.0,93,0.00,,,0.00,Wunderground v.1.15,2013-05-10 13:00:00,
2013-05-10 09:10:00,61.0,57.7,29.99,West,278,5.0,5.0,89,0.00,,,0.00,Wunderground v.1.15,2013-05-10 13:10:00,
2013-05-10 09:15:00,61.5,57.9,29.99,WNW,292,5.0,10.0,88,0.00,,,0.00,Wunderground v.1.15,2013-05-10 13:15:00,
2013-05-10 09:25:00,62.9,58.6,29.99,WNW,293,4.0,10.0,86,0.00,,,0.00,Wunderground v.1.15,2013-05-10 13:25:00,
2013-05-10 09:30:00,63.2,58.9,29.99,West,278,3.0,10.0,86,0.00,,,0.00,Wunderground v.1.15,2013-05-10 13:30:00,
2013-05-10 09:35:00,63.8,58.9,29.99,WSW,252,3.0,10.0,84,0.00,,,0.00,Wunderground v.1.15,2013-05-10 13:35:00,
2013-05-10 09:40:00,64.2,58.2,29.99,WNW,290,4.0,4.0,81,0.00,,,0.00,Wunderground v.1.15,2013-05-10 13:40:00,
2013-05-10 09:45:00,64.6,58.3,29.99,WNW,286,4.0,7.0,80,0.00,,,0.00,Wunderground v.1.15,2013-05-10 13:45:00,
2013-05-10 09:50:00,64.2,58.2,29.99,SW,236,5.0,5.0,81,0.00,,,0.00,Wunderground v.1.15,2013-05-10 13:50:00,
2013-05-10 09:55:00,63.4,57.5,29.99,West,271,5.0,10.0,81,0.00,,,0.00,Wunderground v.1.15,2013-05-10 13:55:00,
2013-05-10 10:05:00,63.5,57.2,29.99,WSW,243,4.0,10.0,80,0.00,,,0.00,Wunderground v.1.15,2013-05-10 14:05:00,
2013-05-10 10:10:00,63.9,57.6,29.99,West,265,5.0,10.0,80,0.00,,,0.00,Wunderground v.1.15,2013-05-10 14:10:00,
2013-05-10 10:15:00,64.3,58.0,29.99,WSW,254,4.0,10.0,80,0.00,,,0.00,Wunderground v.1.15,2013-05-10 14:15:00,
2013-05-10 10:20:00,65.3,57.9,29.99,West,278,4.0,10.0,77,0.00,,,0.00,Wunderground v.1.15,2013-05-10 14:20:00,
2013-05-10 10:25:00,65.7,58.3,29.99,WNW,300,4.0,10.0,77,0.00,,,0.00,Wunderground v.1.15,2013-05-10 14:25:00,
2013-05-10 10:30:00,65.7,58.3,29.99,WNW,301,5.0,5.0,77,0.00,,,0.00,Wunderground v.1.15,2013-05-10 14:30:00,
2013-05-10 10:40:00,66.1,58.7,29.99,West,261,3.0,10.0,77,0.00,,,0.00,Wunderground v.1.15,2013-05-10 14:40:00,
2013-05-10 10:45:00,66.2,59.1,29.99,NW,307,3.0,10.0,78,0.00,,,0.00,Wunderground v.1.15,2013-05-10 14:45:00,
2013-05-10 10:50:00,66.4,57.9,29.99,WSW,253,4.0,10.0,74,0.00,,,0.00,Wunderground v.1.15,2013-05-10 14:50:00,
2013-05-10 10:55:00,66.6,58.1,29.99,West,267,4.0,10.0,74,0.00,,,0.00,Wunderground v.1.15,2013-05-10 14:55:00,
2013-05-10 11:00:00,67.3,58.3,29.99,NNW,331,4.0,4.0,73,0.00,,,0.00,Wunderground v.1.15,2013-05-10 15:00:00,
2013-05-10 11:10:00,67.4,58.1,29.99,West,264,5.0,9.0,72,0.00,,,0.00,Wunderground v.1.15,2013-05-10 15:10:00,
2013-05-10 11:15:00,66.9,58.0,29.99,NW,311,6.0,9.0,73,0.00,,,0.00,Wunderground v.1.15,2013-05-10 15:15:00,
2013-05-10 11:20:00,66.8,58.2,29.99,West,273,5.0,9.0,74,0.00,,,0.00,Wunderground v.1.15,2013-05-10 15:20:00,
2013-05-10 11:25:00,66.4,57.1,29.99,NW,307,4.0,9.0,72,0.00,,,0.00,Wunderground v.1.15,2013-05-10 15:25:00,
2013-05-10 11:30:00,66.7,57.4,29.99,NW,317,4.0,9.0,72,0.00,,,0.00,Wunderground v.1.15,2013-05-10 15:30:00,
2013-05-10 11:35:00,67.1,58.2,29.99,SW,231,4.0,9.0,73,0.00,,,0.00,Wunderground v.1.15,2013-05-10 15:35:00,
2013-05-10 11:40:00,67.4,57.3,30.00,West,269,5.0,9.0,70,0.00,,,0.00,Wunderground v.1.15,2013-05-10 15:40:00,
2013-05-10 11:50:00,67.2,57.5,29.99,SSE,155,5.0,5.0,71,0.00,,,0.00,Wunderground v.1.15,2013-05-10 15:50:00,
2013-05-10 11:55:00,67.8,58.1,29.99,SW,222,4.0,9.0,71,0.00,,,0.00,Wunderground v.1.15,2013-05-10 15:55:00,
2013-05-10 12:00:00,68.6,57.2,29.99,WNW,283,4.0,11.0,67,0.00,,,0.00,Wunderground v.1.15,2013-05-10 16:00:00,
2013-05-10 12:10:00,68.5,56.7,29.99,WNW,303,6.0,11.0,66,0.00,,,0.00,Wunderground v.1.15,2013-05-10 16:10:00,
2013-05-10 12:15:00,68.4,57.4,29.99,WNW,293,6.0,11.0,68,0.00,,,0.00,Wunderground v.1.15,2013-05-10 16:15:00,
2013-05-10 12:25:00,69.7,57.0,29.99,NNW,336,4.0,11.0,64,0.00,,,0.00,Wunderground v.1.15,2013-05-10 16:25:00,
2013-05-10 12:30:00,70.1,56.9,29.99,WSW,257,4.0,11.0,63,0.00,,,0.00,Wunderground v.1.15,2013-05-10 16:30:00,
2013-05-10 12:35:00,70.6,56.0,29.99,West,271,5.0,11.0,60,0.00,,,0.00,Wunderground v.1.15,2013-05-10 16:35:00,
2013-05-10 12:40:00,70.6,54.6,29.99,WNW,297,6.0,11.0,57,0.00,,,0.00,Wunderground v.1.15,2013-05-10 16:40:00,
2013-05-10 12:45:00,70.5,55.9,29.99,SW,232,6.0,11.0,60,0.00,,,0.00,Wunderground v.1.15,2013-05-10 16:45:00,
2013-05-10 12:50:00,70.9,54.4,29.98,WSW,249,5.0,11.0,56,0.00,,,0.00,Wunderground v.1.15,2013-05-10 16:50:00,
2013-05-10 13:00:00,71.5,57.3,29.98,West,267,5.0,5.0,61,0.00,,,0.00,Wunderground v.1.15,2013-05-10 17:00:00,
2013-05-10 13:10:00,72.5,55.9,29.98,South,182,4.0,13.0,56,0.00,,,0.00,Wunderground v.1.15,2013-05-10 17:10:00,
2013-05-10 13:15:00,72.2,54.1,29.98,NW,305,4.0,13.0,53,0.00,,,0.00,Wunderground v.1.15,2013-05-10 17:15:00,
2013-05-10 13:20:00,71.9,54.9,29.98,West,278,5.0,13.0,55,0.00,,,0.00,Wunderground v.1.15,2013-05-10 17:20:00,
2013-05-10 13:25:00,72.5,54.9,29.97,NNW,333,5.0,13.0,54,0.00,,,0.00,Wunderground v.1.15,2013-05-10 17:25:00,
2013-05-10 13:35:00,73.4,55.7,29.98,WSW,249,5.0,13.0,54,0.00,,,0.00,Wunderground v.1.15,2013-05-10 17:35:00,
2013-05-10 13:40:00,73.3,54.6,29.98,South,181,6.0,6.0,52,0.00,,,0.00,Wunderground v.1.15,2013-05-10 17:40:00,
2013-05-10 13:45:00,73.5,52.6,29.98,West,274,6.0,7.0,48,0.00,,,0.00,Wunderground v.1.15,2013-05-10 17:45:00,
2013-05-10 13:50:00,73.4,54.2,29.98,West,265,6.0,6.0,51,0.00,,,0.00,Wunderground v.1.15,2013-05-10 17:50:00,
2013-05-10 14:00:00,74.0,54.2,29.98,WNW,290,5.0,13.0,50,0.00,,,0.00,Wunderground v.1.15,2013-05-10 18:00:00,
2013-05-10 14:10:00,74.7,55.4,29.98,SSW,210,3.0,3.0,51,0.00,,,0.00,Wunderground v.1.15,2013-05-10 18:10:00,
2013-05-10 14:15:00,74.5,55.2,29.97,West,264,3.0,5.0,51,0.00,,,0.00,Wunderground v.1.15,2013-05-10 18:15:00,
2013-05-10 14:20:00,74.4,54.5,29.97,SSE,159,3.0,13.0,50,0.00,,,0.00,Wunderground v.1.15,2013-05-10 18:20:00,
2013-05-10 14:25:00,74.6,56.9,29.97,WNW,287,3.0,13.0,54,0.00,,,0.00,Wunderground v.1.15,2013-05-10 18:25:00,
2013-05-10 14:35:00,74.3,58.1,29.97,ESE,121,3.0,13.0,57,0.00,,,0.00,Wunderground v.1.15,2013-05-10 18:35:00,
2013-05-10 14:40:00,73.7,57.5,29.97,SSE,147,3.0,3.0,57,0.00,,,0.00,Wunderground v.1.15,2013-05-10 18:40:00,
2013-05-10 14:45:00,73.3,57.6,29.98,South,170,3.0,13.0,58,0.00,,,0.00,Wunderground v.1.15,2013-05-10 18:45:00,
2013-05-10 14:50:00,73.0,55.4,29.98,SW,236,3.0,13.0,54,0.00,,,0.00,Wunderground v.1.15,2013-05-10 18:50:00,
2013-05-10 14:55:00,73.1,56.5,29.98,SSW,203,3.0,13.0,56,0.00,,,0.00,Wunderground v.1.15,2013-05-10 18:55:00,
2013-05-10 15:00:00,72.5,54.9,29.98,SSW,193,3.0,8.0,54,0.00,,,0.00,Wunderground v.1.15,2013-05-10 19:00:00,
2013-05-10 15:10:00,72.9,55.8,29.98,SSE,160,3.0,8.0,55,0.00,,,0.00,Wunderground v.1.15,2013-05-10 19:10:00,
2013-05-10 15:15:00,72.7,57.5,29.98,SSW,203,3.0,8.0,59,0.00,,,0.00,Wunderground v.1.15,2013-05-10 19:15:00,
2013-05-10 15:20:00,72.6,56.0,29.98,SSW,205,3.0,3.0,56,0.00,,,0.00,Wunderground v.1.15,2013-05-10 19:20:00,
2013-05-10 15:25:00,72.1,54.5,29.98,SW,217,3.0,8.0,54,0.00,,,0.00,Wunderground v.1.15,2013-05-10 19:25:00,
2013-05-10 15:30:00,71.5,55.9,29.98,South,174,3.0,3.0,58,0.00,,,0.00,Wunderground v.1.15,2013-05-10 19:30:00,
2013-05-10 15:35:00,71.2,54.7,29.98,SSE,155,3.0,8.0,56,0.00,,,0.00,Wunderground v.1.15,2013-05-10 19:35:00,
2013-05-10 15:45:00,70.9,54.9,29.98,South,176,3.0,8.0,57,0.00,,,0.00,Wunderground v.1.15,2013-05-10 19:45:00,
2013-05-10 15:50:00,70.7,54.7,29.98,South,189,4.0,4.0,57,0.00,,,0.00,Wunderground v.1.15,2013-05-10 19:50:00,
2013-05-10 15:55:00,70.6,54.1,29.98,SW,236,4.0,8.0,56,0.00,,,0.00,Wunderground v.1.15,2013-05-10 19:55:00,
2013-05-10 16:00:00,71.2,55.2,29.99,WSW,239,3.0,10.0,57,0.00,,,0.00,Wunderground v.1.15,2013-05-10 20:00:00,
2013-05-10 16:10:00,71.7,55.2,29.99,SSE,155,3.0,3.0,56,0.00,,,0.00,Wunderground v.1.15,2013-05-10 20:10:00,
2013-05-10 16:15:00,71.7,55.2,29.99,SSW,211,3.0,10.0,56,0.00,,,0.00,Wunderground v.1.15,2013-05-10 20:15:00,
2013-05-10 16:20:00,72.3,55.7,29.99,South,177,3.0,3.0,56,0.00,,,0.00,Wunderground v.1.15,2013-05-10 20:20:00,
2013-05-10 16:25:00,73.0,55.9,29.99,ENE,64,2.0,10.0,55,0.00,,,0.00,Wunderground v.1.15,2013-05-10 20:25:00,
2013-05-10 16:30:00,72.9,55.3,29.99,SSW,198,2.0,10.0,54,0.00,,,0.00,Wunderground v.1.15,2013-05-10 20:30:00,
2013-05-10 16:35:00,72.4,53.8,29.99,SE,130,3.0,10.0,52,0.00,,,0.00,Wunderground v.1.15,2013-05-10 20:35:00,
2013-05-10 16:40:00,71.9,55.8,29.99,South,169,3.0,3.0,57,0.00,,,0.00,Wunderground v.1.15,2013-05-10 20:40:00,
2013-05-10 16:50:00,72.0,56.4,29.99,SSW,205,2.0,10.0,58,0.00,,,0.00,Wunderground v.1.15,2013-05-10 20:50:00,
2013-05-10 16:55:00,71.5,55.0,29.98,WNW,284,2.0,10.0,56,0.00,,,0.00,Wunderground v.1.15,2013-05-10 20:55:00,
2013-05-10 17:00:00,70.7,56.1,29.99,SSW,203,3.0,3.0,60,0.00,,,0.00,Wunderground v.1.15,2013-05-10 21:00:00,
2013-05-10 17:10:00,68.7,56.5,29.98,SSE,156,2.0,7.0,65,0.00,,,0.00,Wunderground v.1.15,2013-05-10 21:10:00,
2013-05-10 17:15:00,68.1,56.3,29.98,SSE,157,2.0,7.0,66,0.00,,,0.00,Wunderground v.1.15,2013-05-10 21:15:00,
2013-05-10 17:25:00,67.4,55.6,29.98,South,188,2.0,7.0,66,0.00,,,0.00,Wunderground v.1.15,2013-05-10 21:25:00,
2013-05-10 17:30:00,66.7,55.4,29.98,SSE,148,2.0,2.0,67,0.00,,,0.00,Wunderground v.1.15,2013-05-10 21:30:00,
2013-05-10 17:35:00,66.1,54.8,29.98,SW,224,2.0,7.0,67,0.00,,,0.00,Wunderground v.1.15,2013-05-10 21:35:00,
2013-05-10 17:40:00,65.5,55.1,29.98,SSW,207,2.0,2.0,69,0.00,,,0.00,Wunderground v.1.15,2013-05-10 21:40:00,
2013-05-10 17:45:00,65.0,55.0,29.98,SSE,152,2.0,7.0,70,0.00,,,0.00,Wunderground v.1.15,2013-05-10 21:45:00,
2013-05-10 17:50:00,64.6,55.0,29.98,SW,214,1.0,7.0,71,0.00,,,0.00,Wunderground v.1.15,2013-05-10 21:50:00,
2013-05-10 17:55:00,64.3,54.7,29.98,SSE,164,2.0,7.0,71,0.00,,,0.00,Wunderground v.1.15,2013-05-10 21:55:00,
2013-05-10 18:00:00,64.1,54.9,29.98,SSW,206,2.0,2.0,72,0.00,,,0.00,Wunderground v.1.15,2013-05-10 22:00:00,
2013-05-10 18:05:00,64.2,55.0,29.98,WNW,285,2.0,8.0,72,0.00,,,0.00,Wunderground v.1.15,2013-05-10 22:05:00,
2013-05-10 18:10:00,64.5,55.3,29.97,ESE,123,1.0,8.0,72,0.00,,,0.00,Wunderground v.1.15,2013-05-10 22:10:00,
2013-05-10 18:15:00,64.2,55.0,29.98,West,259,1.0,8.0,72,0.00,,,0.00,Wunderground v.1.15,2013-05-10 22:15:00,
2013-05-10 18:20:00,64.0,55.2,29.98,SSW,207,2.0,2.0,73,0.00,,,0.00,Wunderground v.1.15,2013-05-10 22:20:00,
2013-05-10 18:25:00,63.8,55.0,29.98,WSW,237,2.0,8.0,73,0.00,,,0.00,Wunderground v.1.15,2013-05-10 22:25:00,
2013-05-10 18:30:00,63.6,54.8,29.98,SSW,212,1.0,8.0,73,0.00,,,0.00,Wunderground v.1.15,2013-05-10 22:30:00,
2013-05-10 18:40:00,63.3,54.9,29.98,South,180,1.0,1.0,74,0.00,,,0.00,Wunderground v.1.15,2013-05-10 22:40:00,
2013-05-10 18:45:00,63.0,54.9,29.98,SSW,210,1.0,2.0,75,0.00,,,0.00,Wunderground v.1.15,2013-05-10 22:45:00,
2013-05-10 18:50:00,62.7,54.7,29.98,SSE,160,1.0,8.0,75,0.00,,,0.00,Wunderground v.1.15,2013-05-10 22:50:00,
2013-05-10 18:55:00,62.4,54.7,29.98,ESE,122,1.0,8.0,76,0.00,,,0.00,Wunderground v.1.15,2013-05-10 22:55:00,
2013-05-10 19:00:00,62.0,54.3,29.98,South,191,1.0,1.0,76,0.00,,,0.00,Wunderground v.1.15,2013-05-10 23:00:00,
2013-05-10 19:05:00,61.7,54.4,29.98,South,176,1.0,4.0,77,0.00,,,0.00,Wunderground v.1.15,2013-05-10 23:05:00,
2013-05-10 19:10:00,61.4,54.5,29.98,SSE,161,0.0,4.0,78,0.00,,,0.00,Wunderground v.1.15,2013-05-10 23:10:00,
2013-05-10 19:15:00,61.1,54.2,29.98,South,169,0.0,4.0,78,0.00,,,0.00,Wunderground v.1.15,2013-05-10 23:15:00,
2013-05-10 19:20:00,60.8,53.9,29.99,SSW,207,0.0,4.0,78,0.00,,,0.00,Wunderground v.1.15,2013-05-10 23:20:00,
2013-05-10 19:25:00,60.5,54.0,29.99,South,177,1.0,4.0,79,0.00,,,0.00,Wunderground v.1.15,2013-05-10 23:25:00,
2013-05-10 19:30:00,60.2,54.0,30.00,South,176,1.0,4.0,80,0.00,,,0.00,Wunderground v.1.15,2013-05-10 23:30:00,
2013-05-10 19:35:00,59.9,54.1,30.00,SSW,200,1.0,4.0,81,0.00,,,0.00,Wunderground v.1.15,2013-05-10 23:35:00,
2013-05-10 19:45:00,59.6,53.8,30.00,SSE,166,2.0,4.0,81,0.00,,,0.00,Wunderground v.1.15,2013-05-10 23:45:00,
2013-05-10 19:50:00,59.5,54.0,30.00,SSW,193,1.0,1.0,82,0.00,,,0.00,Wunderground v.1.15,2013-05-10 23:50:00,
2013-05-10 19:55:00,59.2,53.7,30.00,SSW,198,1.0,4.0,82,0.00,,,0.00,Wunderground v.1.15,2013-05-10 23:55:00,
2013-05-10 20:00:00,58.9,53.7,30.00,SSW,198,1.0,5.0,83,0.00,,,0.00,Wunderground v.1.15,2013-05-11 00:00:00,
2013-05-10 20:10:00,58.4,53.6,30.00,SSE,148,0.0,5.0,84,0.00,,,0.00,Wunderground v.1.15,2013-05-11 00:10:00,
2013-05-10 20:20:00,57.8,53.3,30.00,SSE,148,0.0,5.0,85,0.00,,,0.00,Wunderground v.1.15,2013-05-11 00:20:00,
2013-05-10 20:25:00,57.4,52.9,30.00,SE,130,0.0,5.0,85,0.00,,,0.00,Wunderground v.1.15,2013-05-11 00:25:00,
2013-05-10 20:30:00,57.1,53.0,30.00,SW,226,0.0,5.0,86,0.00,,,0.00,Wunderground v.1.15,2013-05-11 00:30:00,
2013-05-10 20:35:00,56.9,53.1,30.00,West,265,0.0,5.0,87,0.00,,,0.00,Wunderground v.1.15,2013-05-11 00:35:00,
2013-05-10 20:40:00,56.7,52.9,30.00,WSW,255,0.0,5.0,87,0.00,,,0.00,Wunderground v.1.15,2013-05-11 00:40:00,
2013-05-10 20:45:00,56.6,52.8,30.00,WSW,255,0.0,5.0,87,0.00,,,0.00,Wunderground v.1.15,2013-05-11 00:45:00,
2013-05-10 20:50:00,56.4,52.9,30.00,WSW,255,0.0,5.0,88,0.00,,,0.00,Wunderground v.1.15,2013-05-11 00:50:00,
2013-05-10 21:00:00,56.1,52.6,30.00,WSW,255,0.0,2.0,88,0.00,,,0.00,Wunderground v.1.15,2013-05-11 01:00:00,
2013-05-10 21:10:00,55.8,52.6,30.00,ESE,122,0.0,2.0,89,0.00,,,0.00,Wunderground v.1.15,2013-05-11 01:10:00,
2013-05-10 21:15:00,55.7,52.5,30.00,SE,146,0.0,2.0,89,0.00,,,0.00,Wunderground v.1.15,2013-05-11 01:15:00,
2013-05-10 21:20:00,55.7,52.8,30.00,SSW,193,0.0,2.0,90,0.00,,,0.00,Wunderground v.1.15,2013-05-11 01:20:00,
2013-05-10 21:30:00,55.7,52.8,30.01,SW,223,0.0,2.0,90,0.00,,,0.00,Wunderground v.1.15,2013-05-11 01:30:00,
2013-05-10 21:35:00,55.7,52.8,30.00,SSW,199,0.0,2.0,90,0.00,,,0.00,Wunderground v.1.15,2013-05-11 01:35:00,
2013-05-10 21:40:00,55.8,53.2,30.01,SSW,199,0.0,2.0,91,0.00,,,0.00,Wunderground v.1.15,2013-05-11 01:40:00,
2013-05-10 21:45:00,55.9,53.0,30.00,SSW,199,0.0,2.0,90,0.00,,,0.00,Wunderground v.1.15,2013-05-11 01:45:00,
2013-05-10 21:50:00,55.8,52.9,30.01,SSW,199,0.0,2.0,90,0.00,,,0.00,Wunderground v.1.15,2013-05-11 01:50:00,
2013-05-10 21:55:00,55.8,53.2,30.01,SSW,199,0.0,2.0,91,0.00,,,0.00,Wunderground v.1.15,2013-05-11 01:55:00,
2013-05-10 22:00:00,55.8,53.2,30.01,SE,137,0.0,2.0,91,0.00,,,0.00,Wunderground v.1.15,2013-05-11 02:00:00,
2013-05-10 22:10:00,55.7,53.1,30.01,SE,137,0.0,2.0,91,0.00,,,0.00,Wunderground v.1.15,2013-05-11 02:10:00,
2013-05-10 22:15:00,55.7,53.1,30.00,SE,137,0.0,2.0,91,0.00,,,0.00,Wunderground v.1.15,2013-05-11 02:15:00,
2013-05-10 22:20:00,55.5,52.9,30.00,SE,137,0.0,2.0,91,0.00,,,0.00,Wunderground v.1.15,2013-05-11 02:20:00,
2013-05-10 22:25:00,55.4,52.8,30.00,SE,137,0.0,2.0,91,0.00,,,0.00,Wunderground v.1.15,2013-05-11 02:25:00,
2013-05-10 22:30:00,55.3,52.7,30.00,SE,137,0.0,2.0,91,0.00,,,0.00,Wunderground v.1.15,2013-05-11 02:30:00,
2013-05-10 22:35:00,55.2,52.6,30.00,SE,137,0.0,2.0,91,0.00,,,0.00,Wunderground v.1.15,2013-05-11 02:35:00,
2013-05-10 22:45:00,55.0,52.7,30.00,SE,137,0.0,2.0,92,0.00,,,0.00,Wunderground v.1.15,2013-05-11 02:45:00,
2013-05-10 22:50:00,55.0,52.7,30.00,SE,137,0.0,2.0,92,0.00,,,0.00,Wunderground v.1.15,2013-05-11 02:50:00,
2013-05-10 22:55:00,55.0,52.7,30.00,SE,137,0.0,2.0,92,0.00,,,0.00,Wunderground v.1.15,2013-05-11 02:55:00,
2013-05-10 23:00:00,54.9,52.6,30.00,SE,137,0.0,1.0,92,0.00,,,0.00,Wunderground v.1.15,2013-05-11 03:00:00,
2013-05-10 23:10:00,54.7,52.4,29.99,SE,137,0.0,1.0,92,0.00,,,0.00,Wunderground v.1.15,2013-05-11 03:10:00,
2013-05-10 23:20:00,54.4,52.1,29.99,SE,137,0.0,1.0,92,0.00,,,0.00,Wunderground v.1.15,2013-05-11 03:20:00,
2013-05-10 23:25:00,54.2,51.9,29.99,SE,137,0.0,1.0,92,0.00,,,0.00,Wunderground v.1.15,2013-05-11 03:25:00,
2013-05-10 23:30:00,54.1,51.8,29.99,SE,137,0.0,1.0,92,0.00,,,0.00,Wunderground v.1.15,2013-05-11 03:30:00,
2013-05-10 23:35:00,54.0,52.0,29.99,ENE,67,0.0,1.0,93,0.00,,,0.00,Wunderground v.1.15,2013-05-11 03:35:00,
2013-05-10 23:40:00,54.1,52.1,29.99,NE,46,0.0,1.0,93,0.00,,,0.00,Wunderground v.1.15,2013-05-11 03:40:00,
2013-05-10 23:45:00,54.5,52.8,29.99,South,169,0.0,1.0,94,0.00,,,0.00,Wunderground v.1.15,2013-05-11 03:45:00,
2013-05-10 23:55:00,55.0,53.3,29.99,South,173,0.0,3.0,94,0.00,,,0.00,Wunderground v.1.15,2013-05-11 03:55:00,